TimeMDT,TemperatureF,Dew PointF,Humidity,Sea Level PressureIn,VisibilityMPH,Wind Direction,Wind SpeedMPH,Gust SpeedMPH,PrecipitationIn,Events,Conditions,WindDirDegrees,DateUTC
12:53 AM,73.9,37.0,26,29.79,10.0,SSE,8.1,-,N/A,,Clear,150,2012-09-02 06:53:00
1:53 AM,69.1,37.0,31,29.79,10.0,East,6.9,-,N/A,,Clear,90,2012-09-02 07:53:00
2:53 AM,66.0,37.9,36,29.79,10.0,ENE,3.5,-,N/A,,Clear,70,2012-09-02 08:53:00
3:53 AM,64.9,37.9,37,29.77,10.0,East,5.8,-,N/A,,Clear,80,2012-09-02 09:53:00
4:53 AM,61.0,37.9,42,29.77,10.0,East,8.1,-,N/A,,Clear,80,2012-09-02 10:53:00
5:53 AM,57.9,39.9,51,29.81,10.0,Calm,Calm,-,N/A,,Clear,0,2012-09-02 11:53:00
6:53 AM,60.1,39.9,47,29.83,10.0,Calm,Calm,-,N/A,,Clear,0,2012-09-02 12:53:00
7:53 AM,66.0,39.9,38,29.86,9.0,West,3.5,-,N/A,,Clear,280,2012-09-02 13:53:00
8:53 AM,73.0,39.9,30,29.86,10.0,NW,3.5,-,N/A,,Clear,320,2012-09-02 14:53:00
9:53 AM,87.1,45.0,23,29.85,10.0,NNE,16.1,-,N/A,,Clear,30,2012-09-02 15:53:00
10:53 AM,93.0,45.0,19,29.84,10.0,NNE,16.1,21.9,N/A,,Clear,20,2012-09-02 16:53:00
11:53 AM,93.0,43.0,18,29.84,10.0,NNE,15.0,25.3,N/A,,Clear,20,2012-09-02 17:53:00
12:53 PM,97.0,42.1,15,29.81,10.0,North,16.1,23.0,N/A,,Clear,10,2012-09-02 18:53:00
1:53 PM,97.0,41.0,14,29.81,10.0,North,8.1,19.6,N/A,,Clear,10,2012-09-02 19:53:00
2:53 PM,98.1,41.0,14,29.79,10.0,ENE,8.1,16.1,N/A,,Clear,70,2012-09-02 20:53:00
3:53 PM,97.0,42.1,15,29.79,10.0,NNE,11.5,18.4,N/A,,Clear,20,2012-09-02 21:53:00
4:53 PM,97.0,42.1,15,29.79,10.0,North,9.2,-,N/A,,Clear,10,2012-09-02 22:53:00
5:53 PM,96.1,42.1,15,29.79,10.0,Variable,4.6,-,N/A,,Clear,0,2012-09-02 23:53:00
6:53 PM,91.0,44.1,20,29.80,10.0,NNW,5.8,-,N/A,,Clear,340,2012-09-03 00:53:00
7:53 PM,81.0,45.0,28,29.82,10.0,North,4.6,-,N/A,,Clear,360,2012-09-03 01:53:00
8:53 PM,81.0,44.1,27,29.82,10.0,NE,4.6,-,N/A,,Clear,50,2012-09-03 02:53:00
9:53 PM,79.0,43.0,28,29.81,10.0,ENE,5.8,-,N/A,,Clear,60,2012-09-03 03:53:00
10:53 PM,80.1,44.1,28,29.81,10.0,ENE,6.9,-,N/A,,Clear,60,2012-09-03 04:53:00
11:53 PM,80.1,45.0,29,29.81,10.0,North,5.8,-,N/A,,Partly Cloudy,10,2012-09-03 05:53:00